• In Hungary
  • List of Countries
  • For 7 days
  • Water Temperature
  • Satellite Maps
  • Weather Map
  • News
  • Weather Widgets
  • user-avatar
    Login

    Hourly Weather Dobrinka

    Today, 24 September, Monday

    Time Temperature Precipitation Wind Pressure Humidity
    00:00 +9°C° 1.8 mm 5 mps 745 mmHg 85%
    01:00 +9°C° 0.1 mm 5 mps 745 mmHg 86%
    02:00 +10°C° 0.1 mm 4 mps 745 mmHg 87%
    03:00 +8°C° 0.1 mm 4 mps 746 mmHg 87%
    04:00 +8°C° 0 mm 4 mps 746 mmHg 89%
    05:00 +9°C° 0 mm 3 mps 746 mmHg 91%
    06:00 +8°C° 0 mm 3 mps 746 mmHg 92%
    07:00 +9°C° 0 mm 3 mps 746 mmHg 87%
    08:00 +11°C° 0 mm 3 mps 747 mmHg 81%
    09:00 +12°C° 0 mm 3 mps 747 mmHg 75%
    10:00 +13°C° 0 mm 3 mps 747 mmHg 67%
    11:00 +14°C° 0 mm 3 mps 747 mmHg 60%
    12:00 +17°C° 0 mm 3 mps 747 mmHg 52%
    13:00 +17°C° 0 mm 3 mps 747 mmHg 50%
    14:00 +17°C° 0 mm 4 mps 747 mmHg 49%
    15:00 +18°C° 0 mm 4 mps 746 mmHg 47%
    16:00 +17°C° 0 mm 4 mps 746 mmHg 51%
    17:00 +15°C° 0 mm 4 mps 745 mmHg 54%
    18:00 +14°C° 0 mm 4 mps 744 mmHg 58%
    19:00 +14°C° 0 mm 4 mps 744 mmHg 56%
    20:00 +14°C° 0 mm 5 mps 744 mmHg 55%
    21:00 +14°C° 0 mm 5 mps 744 mmHg 53%
    22:00 +13°C° 0.2 mm 6 mps 743 mmHg 54%
    23:00 +13°C° 0.2 mm 6 mps 742 mmHg 54%

    Tomorrow, 25 September, Tuesday

    Time Temperature Precipitation Wind Pressure Humidity
    00:00 +12°C° 0.2 mm 7 mps 742 mmHg 55%
    01:00 +12°C° 0.1 mm 7 mps 741 mmHg 55%
    02:00 +12°C° 0.1 mm 7 mps 740 mmHg 55%
    03:00 +12°C° 0.1 mm 7 mps 740 mmHg 55%
    04:00 +13°C° 0.3 mm 6 mps 739 mmHg 63%
    05:00 +13°C° 0.3 mm 6 mps 739 mmHg 70%
    06:00 +13°C° 0.3 mm 5 mps 739 mmHg 78%
    07:00 +11°C° 1.7 mm 6 mps 739 mmHg 81%
    08:00 +10°C° 1.7 mm 6 mps 739 mmHg 84%
    09:00 +10°C° 1.7 mm 6 mps 739 mmHg 87%
    10:00 +10°C° 0.4 mm 6 mps 740 mmHg 81%
    11:00 +10°C° 0.4 mm 6 mps 740 mmHg 76%
    12:00 +11°C° 0.4 mm 6 mps 741 mmHg 70%
    13:00 +11°C° 0 mm 6 mps 741 mmHg 69%
    14:00 +11°C° 0 mm 6 mps 741 mmHg 67%
    15:00 +11°C° 0 mm 6 mps 742 mmHg 66%
    16:00 +10°C° 0 mm 5 mps 742 mmHg 67%
    17:00 +10°C° 0 mm 5 mps 743 mmHg 69%
    18:00 +10°C° 0 mm 4 mps 743 mmHg 71%
    19:00 +10°C° 0 mm 4 mps 744 mmHg 74%
    20:00 +8°C° 0 mm 4 mps 744 mmHg 77%
    21:00 +7°C° 0 mm 5 mps 745 mmHg 80%
    22:00 +7°C° 0 mm 4 mps 745 mmHg 81%
    23:00 +6°C° 0 mm 4 mps 746 mmHg 83%

    Day after tomorrow, 26 September, Wednesday

    Time Temperature Precipitation Wind Pressure Humidity
    00:00 +6°C° 0 mm 4 mps 746 mmHg 85%
    01:00 +5°C° 0 mm 4 mps 747 mmHg 85%
    02:00 +5°C° 0 mm 4 mps 747 mmHg 86%
    03:00 +4°C° 0 mm 4 mps 748 mmHg 86%
    04:00 +4°C° 0 mm 3 mps 748 mmHg 87%
    05:00 +4°C° 0 mm 3 mps 749 mmHg 89%
    06:00 +3°C° 0 mm 3 mps 749 mmHg 90%
    07:00 +5°C° 0 mm 4 mps 750 mmHg 84%
    08:00 +6°C° 0 mm 4 mps 751 mmHg 78%
    09:00 +7°C° 0 mm 4 mps 751 mmHg 73%
    10:00 +8°C° 0 mm 4 mps 752 mmHg 67%
    11:00 +10°C° 0 mm 4 mps 752 mmHg 62%
    12:00 +11°C° 0 mm 4 mps 753 mmHg 56%
    13:00 +11°C° 0 mm 4 mps 753 mmHg 55%
    14:00 +11°C° 0 mm 4 mps 753 mmHg 54%
    15:00 +12°C° 0 mm 4 mps 753 mmHg 53%
    16:00 +11°C° 0 mm 3 mps 753 mmHg 56%
    17:00 +10°C° 0 mm 3 mps 754 mmHg 58%
    18:00 +9°C° 0 mm 2 mps 754 mmHg 61%
    19:00 +8°C° 0 mm 2 mps 754 mmHg 63%
    20:00 +8°C° 0 mm 2 mps 754 mmHg 64%
    21:00 +7°C° 0 mm 2 mps 754 mmHg 65%
    22:00 +6°C° 0 mm 2 mps 754 mmHg 66%
    23:00 +6°C° 0 mm 2 mps 754 mmHg 67%

    27 September, Thursday

    Time Temperature Precipitation Wind Pressure Humidity
    00:00 +5°C° 0 mm 2 mps 754 mmHg 68%
    01:00 +5°C° 0 mm 2 mps 754 mmHg 68%
    02:00 +3°C° 0 mm 3 mps 754 mmHg 69%
    03:00 +3°C° 0 mm 3 mps 754 mmHg 69%
    04:00 +3°C° 0 mm 3 mps 753 mmHg 70%
    05:00 +3°C° 0 mm 3 mps 753 mmHg 71%
    06:00 +1°C° 0 mm 4 mps 752 mmHg 72%
    07:00 +3°C° 0 mm 5 mps 752 mmHg 67%
    08:00 +4°C° 0 mm 6 mps 752 mmHg 61%
    09:00 +5°C° 0 mm 7 mps 751 mmHg 56%
    10:00 +6°C° 0 mm 8 mps 751 mmHg 54%
    11:00 +7°C° 0 mm 8 mps 750 mmHg 52%
    12:00 +8°C° 0 mm 9 mps 750 mmHg 50%
    13:00 +8°C° 0.2 mm 9 mps 749 mmHg 51%
    14:00 +8°C° 0.2 mm 9 mps 749 mmHg 53%
    15:00 +8°C° 0.2 mm 9 mps 748 mmHg 54%
    16:00 +7°C° 0.4 mm 8 mps 748 mmHg 58%
    17:00 +8°C° 0.4 mm 7 mps 748 mmHg 61%
    18:00 +8°C° 0.4 mm 6 mps 747 mmHg 65%
    19:00 +8°C° 0.1 mm 6 mps 747 mmHg 68%
    20:00 +8°C° 0.1 mm 6 mps 747 mmHg 70%
    21:00 +8°C° 0.1 mm 6 mps 747 mmHg 73%
    22:00 +8°C° 0.1 mm 6 mps 747 mmHg 76%
    23:00 +8°C° 0.1 mm 5 mps 747 mmHg 78%

    28 September, Friday

    Time Temperature Precipitation Wind Pressure Humidity
    00:00 +8°C° 0.1 mm 5 mps 747 mmHg 81%
    01:00 +8°C° 0 mm 5 mps 747 mmHg 82%
    02:00 +8°C° 0 mm 5 mps 747 mmHg 84%
    03:00 +8°C° 0 mm 4 mps 748 mmHg 85%
    04:00 +8°C° 0 mm 4 mps 748 mmHg 87%
    05:00 +8°C° 0 mm 3 mps 748 mmHg 90%
    06:00 +8°C° 0 mm 3 mps 748 mmHg 93%
    07:00 +8°C° 0 mm 4 mps 748 mmHg 88%
    08:00 +10°C° 0 mm 4 mps 748 mmHg 84%
    09:00 +10°C° 0 mm 5 mps 748 mmHg 79%
    10:00 +13°C° 0 mm 5 mps 747 mmHg 75%
    11:00 +14°C° 0 mm 6 mps 747 mmHg 70%
    12:00 +15°C° 0 mm 7 mps 747 mmHg 66%
    13:00 +16°C° 0 mm 7 mps 746 mmHg 64%
    14:00 +17°C° 0 mm 8 mps 746 mmHg 61%
    15:00 +18°C° 0 mm 8 mps 745 mmHg 58%
    16:00 +17°C° 0 mm 8 mps 745 mmHg 61%
    17:00 +17°C° 0 mm 7 mps 745 mmHg 63%
    18:00 +16°C° 0 mm 6 mps 744 mmHg 66%
    19:00 +16°C° 0 mm 6 mps 745 mmHg 67%
    20:00 +16°C° 0 mm 6 mps 745 mmHg 68%
    21:00 +16°C° 0 mm 6 mps 745 mmHg 69%
    22:00 +15°C° 0.1 mm 6 mps 746 mmHg 70%
    23:00 +14°C° 0.1 mm 5 mps 746 mmHg 70%

    29 September, Saturday

    Time Temperature Precipitation Wind Pressure Humidity
    00:00 +13°C° 0.1 mm 5 mps 747 mmHg 71%
    01:00 +12°C° 0 mm 4 mps 747 mmHg 71%
    02:00 +11°C° 0 mm 3 mps 748 mmHg 70%
    03:00 +10°C° 0 mm 3 mps 748 mmHg 70%
    04:00 +9°C° 0 mm 2 mps 748 mmHg 72%
    05:00 +8°C° 0 mm 2 mps 749 mmHg 74%
    06:00 +7°C° 0 mm 2 mps 749 mmHg 77%
    07:00 +8°C° 0 mm 2 mps 750 mmHg 71%
    08:00 +9°C° 0 mm 2 mps 750 mmHg 66%
    09:00 +10°C° 0 mm 2 mps 750 mmHg 60%
    10:00 +12°C° 0 mm 2 mps 750 mmHg 55%
    11:00 +13°C° 0 mm 2 mps 751 mmHg 50%
    12:00 +14°C° 0 mm 2 mps 751 mmHg 45%
    13:00 +13°C° 0 mm 3 mps 751 mmHg 44%
    14:00 +13°C° 0 mm 3 mps 751 mmHg 43%
    15:00 +14°C° 0 mm 3 mps 751 mmHg 43%
    16:00 +13°C° 0 mm 3 mps 751 mmHg 48%
    17:00 +12°C° 0 mm 3 mps 751 mmHg 53%
    18:00 +10°C° 0 mm 3 mps 752 mmHg 59%
    19:00 +10°C° 0 mm 3 mps 752 mmHg 60%
    20:00 +9°C° 0 mm 3 mps 753 mmHg 62%
    21:00 +7°C° 0 mm 4 mps 753 mmHg 64%
    22:00 +6°C° 0 mm 4 mps 754 mmHg 64%
    23:00 +5°C° 0 mm 3 mps 754 mmHg 65%
    Show more

    3.3.7123123